Location: Angola by the Bay
(38.6709°N, 75.1746°W)
Time: 06:43:16
(UTC+00:00)

DIWATA 2B (PO-101) - Pass Details

Date: 10 December 2024
Orbit: 569 x 582 km, 98.1° (Epoch: 18 January)

Event Time Altitude Azimuth Distance (km) Brightness Sun altitude
Rises 22:38:29 0° 1° (N) 2,787 ? -11.3°
Reaches altitude 10° 22:40:50 10° 350° (N) 1,882 ? -11.7°
Maximum altitude 22:44:22 29° 290° (WNW) 1,057 ? -12.4°
Drops below altitude 10° 22:47:52 10° 229° (SW) 1,866 ? -13.0°
Sets 22:50:11 0° 218° (SW) 2,757 ? -13.4°
